Weather History for KSPB - December, 2013

Change the Weather History Date:

Monday, December 23, 2013

  Actual Average Record
Temperature  
Mean Temperature 44 °F -  
Max Temperature 53 °F - 53 °F (2013)
Min Temperature 35 °F - 10 °F (1998)
Degree Days  
Heating Degree Days 21    
Month to date heating degree days 720  
Since 1 July heating degree days 1918  
Cooling Degree Days 0    
Month to date cooling degree days 0  
Year to date cooling degree days 396  
Moisture  
Dew Point 43 °F    
Average Humidity 86    
Maximum Humidity 100    
Minimum Humidity 71    
Precipitation  
Precipitation 0.03 in - 0.66 in (2006)
Month to date precipitation 1.33  
Year to date precipitation 27.06  
Sea Level Pressure  
Sea Level Pressure 30.36 in    
Wind  
Wind Speed 3 mph (South)    
Max Wind Speed 14 mph    
Max Gust Speed 21 mph    
Visibility 6 miles    
Events Fog , Rain    
T = Trace of Precipitation, MM = Missing Value Source: NWS Daily Summary

Daily Weather History Graph

Daily Weather History Graph

Search for Another Location

Airport or City:

Trip Planner

Search our weather history database for the weather conditions in past years. The results will help you decide how hot, cold, wet, or windy it might be!

Date:

Astronomy

Dec. 23, 2013 Rise Set
Actual Time 7:50 AM PST 4:31 PM PST
Civil Twilight 7:16 AM PST 5:05 PM PST
Nautical Twilight 6:38 AM PST 5:43 PM PST
Astronomical Twilight 6:01 AM PST 6:19 PM PST
Moon 11:04 PM PST (12/23) 11:01 AM PST (12/23)
Length of Visible Light 9h 49m
Length of Day
8h 40m
Waning Gibbous, 67% of the Moon is Illuminated
Dec 23
Waning Gibbous
Dec 25
Last Quarter
Jan 1
New
Jan 7
First Quarter
Jan 15
Full

Hourly Weather History & Observations

Time (PST) Temp. Windchill Dew Point Humidity Pressure Visibility Wind Dir Wind Speed Gust Speed Precip Events Conditions
12:01 AM 45.0 °F - 44.1 °F 97% 30.34 in 3.0 mi Calm Calm - N/A   Overcast
12:49 AM 46.4 °F - 44.6 °F 93% 30.32 in 4.0 mi Calm Calm - N/A   Overcast
12:53 AM 46.0 °F - 44.1 °F 93% 30.32 in 4.0 mi Calm Calm - N/A   Overcast
1:51 AM 46.4 °F 45.2 °F 44.6 °F 93% 30.31 in 1.8 mi SE 3.5 mph - N/A   Overcast
1:53 AM 45.0 °F - 44.1 °F 97% 30.32 in 1.2 mi Calm Calm - N/A   Overcast
2:36 AM 46.0 °F - 44.1 °F 93% 30.33 in 0.5 mi Calm Calm - N/A Fog Fog
2:48 AM 46.4 °F - 44.6 °F 93% 30.32 in 1.2 mi Calm Calm - 0.00 in Rain Light Rain
2:53 AM 46.0 °F - 45.0 °F 96% 30.33 in 1.0 mi Calm Calm - 0.00 in Rain Light Rain
3:00 AM 46.0 °F - 45.0 °F 96% 30.33 in 0.8 mi Calm Calm - 0.00 in Rain Light Rain
3:08 AM 46.0 °F - 45.0 °F 96% 30.33 in 1.5 mi Calm Calm - 0.00 in   Overcast
3:15 AM 45.0 °F 43.5 °F 44.1 °F 97% 30.32 in 0.8 mi South 3.5 mph - 0.00 in   Overcast
3:30 AM 46.0 °F - 45.0 °F 96% 30.32 in 2.0 mi Calm Calm - 0.00 in   Overcast
3:38 AM 46.0 °F - 44.1 °F 93% 30.32 in 3.0 mi Calm Calm - 0.00 in   Overcast
3:53 AM 46.0 °F - 45.0 °F 96% 30.32 in 4.0 mi Calm Calm - 0.00 in Rain Light Rain
4:08 AM 46.0 °F - 44.1 °F 93% 30.32 in 2.0 mi Calm Calm - 0.00 in Rain Light Rain
4:13 AM 46.0 °F - 44.1 °F 93% 30.32 in 1.8 mi Calm Calm - 0.01 in Rain Rain
4:24 AM 46.0 °F - 45.0 °F 96% 30.32 in 2.5 mi Calm Calm - 0.02 in Rain Light Rain
4:44 AM 46.0 °F - 45.0 °F 96% 30.32 in 4.0 mi Calm Calm - 0.03 in Rain Light Rain
4:53 AM 46.0 °F - 45.0 °F 96% 30.32 in 5.0 mi Calm Calm - 0.03 in   Overcast
5:23 AM 46.0 °F - 44.1 °F 93% 30.32 in 4.0 mi Calm Calm - 0.01 in   Overcast
5:32 AM 45.0 °F - 44.1 °F 97% 30.32 in 1.8 mi Calm Calm - 0.01 in   Overcast
5:53 AM 45.0 °F - 44.1 °F 97% 30.31 in 1.0 mi Calm Calm - 0.01 in   Overcast
6:17 AM 46.0 °F 43.9 °F 45.0 °F 96% 30.30 in 3.0 mi SSE 4.6 mph - 0.01 in Rain Light Rain
6:53 AM 46.9 °F - 45.0 °F 93% 30.31 in 10.0 mi SSE 5.8 mph - 0.01 in   Overcast
7:53 AM 46.9 °F - 45.0 °F 93% 30.30 in 9.0 mi SE 6.9 mph - 0.00 in   Overcast
8:11 AM 46.9 °F - 45.0 °F 93% 30.30 in 7.0 mi SE 4.6 mph - N/A   Overcast
8:21 AM 46.9 °F - 45.0 °F 93% 30.30 in 6.0 mi SSE 4.6 mph - N/A   Overcast
8:53 AM 48.0 °F - 45.0 °F 89% 30.31 in 10.0 mi SSE 5.8 mph - 0.00 in   Overcast
9:02 AM 48.0 °F - 45.0 °F 89% 30.30 in 10.0 mi SE 10.4 mph - N/A   Overcast
9:26 AM 48.0 °F - 46.0 °F 93% 30.30 in 10.0 mi SSE 5.8 mph - 0.00 in   Overcast
9:53 AM 48.9 °F - 46.0 °F 90% 30.31 in 10.0 mi Variable 3.5 mph - 0.00 in   Overcast
10:25 AM 48.9 °F - 46.0 °F 90% 30.32 in - ESE 3.5 mph - 0.01 in   Unknown
10:53 AM 50.0 °F - 46.9 °F 89% 30.33 in 8.0 mi Calm Calm - 0.02 in   Overcast
11:19 AM 50.0 °F - 46.9 °F 89% 30.31 in 9.0 mi SE 4.6 mph - 0.01 in Rain Light Rain
11:51 AM 51.8 °F - 48.2 °F 88% 30.30 in 10.0 mi SSE 6.9 mph - 0.01 in Rain Light Rain
11:53 AM 51.1 °F - 48.0 °F 89% 30.30 in 10.0 mi South 5.8 mph - 0.01 in Rain Light Rain
12:11 PM 52.0 °F - 48.9 °F 89% 30.29 in 10.0 mi Variable 3.5 mph - 0.00 in   Overcast
12:37 PM 52.0 °F - 48.0 °F 86% 30.29 in 10.0 mi South 8.1 mph - 0.00 in   Overcast
12:53 PM 52.0 °F - 48.0 °F 86% 30.29 in 9.0 mi South 6.9 mph - 0.00 in Rain Light Rain
1:31 PM 52.0 °F - 48.0 °F 86% 30.30 in 10.0 mi Variable 4.6 mph - 0.00 in   Overcast
1:53 PM 52.0 °F - 46.9 °F 83% 30.30 in 10.0 mi NW 6.9 mph - 0.00 in   Overcast
2:53 PM 51.1 °F - 44.1 °F 77% 30.34 in 10.0 mi NNW 5.8 mph - N/A   Overcast
3:53 PM 48.9 °F - 39.9 °F 71% 30.38 in 10.0 mi West 6.9 mph - N/A   Scattered Clouds
4:53 PM 48.0 °F - 39.9 °F 74% 30.42 in 10.0 mi WNW 3.5 mph - N/A   Overcast
5:53 PM 46.9 °F - 41.0 °F 80% 30.45 in 10.0 mi WNW 3.5 mph - 0.00 in Rain Light Rain
6:53 PM 39.9 °F 36.7 °F 37.9 °F 93% 30.48 in 10.0 mi West 4.6 mph - 0.00 in   Clear
7:39 PM 39.0 °F - 36.0 °F 89% 30.49 in 2.5 mi Calm Calm - N/A   Clear
7:46 PM 39.9 °F 37.8 °F 37.0 °F 89% 30.50 in 10.0 mi NW 3.5 mph - N/A   Clear
7:53 PM 39.0 °F 36.8 °F 36.0 °F 89% 30.50 in 10.0 mi WNW 3.5 mph - N/A   Clear
8:27 PM 36.0 °F - 34.0 °F 93% 30.51 in 2.0 mi Calm Calm - N/A   Partly Cloudy
8:34 PM 37.0 °F - 35.1 °F 93% 30.51 in 1.5 mi Calm Calm - N/A   Partly Cloudy
8:37 PM 37.9 °F - 35.1 °F 89% 30.51 in 4.0 mi Calm Calm - N/A   Clear
8:53 PM 37.0 °F - 35.1 °F 93% 30.51 in 10.0 mi Calm Calm - N/A   Clear
9:53 PM 36.0 °F 33.3 °F 34.0 °F 93% 30.52 in 10.0 mi WSW 3.5 mph - N/A   Scattered Clouds
10:53 PM 36.0 °F 33.3 °F 33.1 °F 89% 30.54 in 6.0 mi SE 3.5 mph - N/A   Overcast
11:53 PM 39.0 °F - 36.0 °F 89% 30.54 in 10.0 mi Calm Calm - N/A   Clear